EW0805 Weather Reports


Display with metric or nautical units.
time (UTC)temp
F
wind
direction
speed
MPH
gust
MPH
rain 1hr
in
rain 24hr
in
rain mn
in
humidity
%
barometer
mb
20260508003005 48 135 0.0 0.0 0.00 0.00 0.00 1 1016.7
20260508001600 48 135 0.0 0.0 0.00 0.00 0.00 1 1016.8
20260508000058 48 135 0.0 0.0 0.00 0.00 0.00 8 1016.8
20260507234552 49 135 0.0 0.0 0.00 0.00 0.00 14 1016.9
20260507233049 49 135 0.0 0.0 0.00 0.00 0.00 15 1017.0
20260507231551 50 135 0.0 0.0 0.00 0.00 0.00 19 1017.0
20260507230050 50 135 0.0 3.0 0.00 0.00 0.00 23 1017.1
20260507224543 50 162 1.0 2.0 0.00 0.00 0.00 30 1017.2
20260507223036 50 106 0.0 3.0 0.00 0.00 0.00 34 1017.0
20260507221537 51 87 0.0 2.0 0.00 0.00 0.00 39 1016.9
20260507220027 51 145 0.0 0.0 0.00 0.00 0.00 42 1017.1
20260507214522 52 145 0.0 2.0 0.00 0.00 0.00 46 1017.2
20260507213018 52 145 0.0 1.0 0.00 0.00 0.00 49 1017.2
20260507211520 52 145 0.0 2.0 0.00 0.00 0.00 51 1017.2
20260507210009 53 129 0.0 3.0 0.00 0.00 0.00 53 1017.0
20260507204507 53 120 1.0 4.0 0.00 0.00 0.00 55 1016.8
20260507203111 53 148 1.0 5.0 0.00 0.00 0.00 57 1016.7
20260507201600 54 122 1.0 4.0 0.00 0.00 0.00 58 1016.6
20260507200106 54 115 1.0 4.0 0.00 0.00 0.00 60 1016.4
20260507194547 55 129 1.0 5.0 0.00 0.00 0.00 60 1016.2
20260507193047 55 133 1.0 7.0 0.00 0.00 0.00 60 1016.0
20260507191538 56 105 4.0 9.0 0.00 0.00 0.00 60 1015.9
20260507190034 56 142 3.0 9.0 0.00 0.00 0.00 60 1015.8
20260507184529 57 117 2.0 7.0 0.00 0.00 0.00 60 1015.8
20260507183025 58 115 4.0 11.0 0.00 0.00 0.00 60 1015.8
20260507181525 59 116 3.0 9.0 0.00 0.00 0.00 59 1015.7
20260507180022 59 136 2.0 9.0 0.00 0.00 0.00 57 1015.5
20260507174514 59 119 3.0 10.0 0.00 0.00 0.00 56 1015.4
20260507173019 60 173 4.0 9.0 0.00 0.00 0.00 55 1015.4
20260507171507 60 133 4.0 9.0 0.00 0.00 0.00 55 1015.4
20260507170103 60 131 3.0 8.0 0.00 0.00 0.00 56 1015.4
20260507164600 60 155 2.0 9.0 0.00 0.00 0.00 55 1015.5
20260507163048 61 124 5.0 9.0 0.00 0.00 0.00 55 1015.5
20260507161543 62 119 5.0 10.0 0.00 0.00 0.00 54 1015.6
20260507160040 63 135 5.0 10.0 0.00 0.00 0.00 52 1015.5
20260507154539 64 152 3.0 9.0 0.00 0.00 0.00 47 1015.5
20260507153030 64 116 5.0 9.0 0.00 0.00 0.00 45 1015.5
20260507151525 64 110 1.0 4.0 0.00 0.00 0.00 44 1015.5
20260507150026 64 46 2.0 5.0 0.00 0.00 0.00 43 1015.5
20260507144524 64 153 2.0 6.0 0.00 0.00 0.00 45 1015.6
20260507143013 64 50 1.0 6.0 0.00 0.00 0.00 42 1015.7
20260507141508 63 75 2.0 10.0 0.00 0.00 0.00 44 1015.7
20260507140005 64 74 1.0 4.0 0.00 0.00 0.00 42 1015.9
20260507134609 63 14 1.0 4.0 0.00 0.00 0.00 40 1015.9
20260507133123 63 161 2.0 5.0 0.00 0.00 0.00 44 1016.0
20260507131554 63 229 3.0 7.0 0.00 0.00 0.00 43 1016.0
20260507130103 63 108 1.0 4.0 0.00 0.00 0.00 41 1016.0
20260507124541 64 206 1.0 3.0 0.00 0.00 0.00 39 1016.0
20260507123039 65 247 1.0 8.0 0.00 0.00 0.00 38 1016.1
20260507121533 66 337 2.0 5.0 0.00 0.00 0.00 37 1016.2
20260507120028 64 208 0.0 5.0 0.00 0.00 0.00 41 1016.2
20260507114525 64 320 2.0 6.0 0.00 0.00 0.00 42 1016.4
20260507113023 64 313 2.0 5.0 0.00 0.00 0.00 43 1016.3
20260507111516 65 316 3.0 9.0 0.00 0.00 0.00 41 1016.5
20260507110013 65 308 1.0 6.0 0.00 0.00 0.00 42 1016.4
20260507104508 64 128 2.0 5.0 0.00 0.00 0.00 45 1016.6
20260507103003 63 36 1.0 8.0 0.00 0.00 0.00 47 1016.6
20260507101612 60 144 2.0 7.0 0.00 0.00 0.00 54 1016.8
20260507094550 59 151 1.0 5.0 0.00 0.00 0.00 56 1016.8
20260507093048 59 268 0.0 6.0 0.00 0.00 0.00 56 1016.8
20260507091546 59 129 0.0 4.0 0.00 0.00 0.00 58 1016.9
20260507090039 58 177 1.0 6.0 0.00 0.00 0.00 59 1016.9
20260507084532 58 135 3.0 7.0 0.00 0.00 0.00 53 1016.9
20260507083032 56 91 2.0 5.0 0.00 0.00 0.00 4 1016.9
20260507081523 52 95 2.0 8.0 0.00 0.00 0.00 1 1016.9
20260507080022 49 94 1.0 4.0 0.00 0.00 0.00 1 1016.9
20260507074514 47 99 0.0 3.0 0.00 0.00 0.00 1 1016.8
20260507073011 46 37 2.0 5.0 0.00 0.00 0.00 1 1016.8
20260507071505 45 56 2.0 4.0 0.00 0.00 0.00 1 1016.8
20260507070002 43 49 1.0 3.0 0.00 0.00 0.00 1 1016.8
20260507064600 42 55 0.0 2.0 0.00 0.00 0.00 1 1016.8
20260507063057 41 317 0.0 0.0 0.00 0.00 0.00 1 1016.8
20260507061548 40 310 0.0 0.0 0.00 0.00 0.00 1 1016.8
20260507060043 40 295 0.0 2.0 0.00 0.00 0.00 1 1016.7
20260507054540 39 295 0.0 2.0 0.00 0.00 0.00 1 1016.6
20260507053034 39 302 0.0 1.0 0.00 0.00 0.00 1 1016.5
20260507051532 39 302 0.0 1.0 0.00 0.00 0.00 1 1016.4
20260507050028 39 337 0.0 0.0 0.00 0.00 0.00 1 1016.4
20260507044519 40 337 0.0 0.0 0.00 0.00 0.00 1 1016.2
20260507043022 40 337 0.0 0.0 0.00 0.00 0.00 1 1016.1
20260507041511 40 337 0.0 0.0 0.00 0.00 0.00 1 1016.1
20260507040010 41 337 0.0 0.0 0.00 0.00 0.00 1 1016.2
20260507034503 41 337 0.0 0.0 0.00 0.00 0.00 1 1016.2
20260507033105 41 337 0.0 0.0 0.00 0.00 0.00 1 1016.1
20260507031554 42 337 0.0 0.0 0.00 0.00 0.00 1 1016.2
20260507030049 42 337 0.0 0.0 0.00 0.00 0.00 1 1016.1
20260507024551 43 337 0.0 0.0 0.00 0.00 0.00 1 1016.1
20260507023047 43 337 0.0 0.0 0.00 0.00 0.00 1 1016.0
20260507021538 44 337 0.0 2.0 0.00 0.00 0.00 1 1016.1
20260507020045 44 343 0.0 2.0 0.00 0.00 0.00 1 1015.9
20260507014531 44 343 0.0 0.0 0.00 0.00 0.00 1 1015.8
20260507013041 44 343 0.0 0.0 0.00 0.00 0.00 1 1015.8
20260507011519 45 343 0.0 1.0 0.00 0.00 0.00 1 1015.9
20260507010023 45 343 0.0 1.0 0.00 0.00 0.00 1 1015.9
20260507004509 46 343 0.0 1.0 0.00 0.00 0.00 1 1015.9